| time (UTC) | temp C | wind direction | speed KPH | gust KPH | rain 1hr cm | rain 24hr cm | rain mn cm | humidity % | barometer mb |
| 20260901190610 | 25 | 34 | 8.0 | 11.3 | 0.00 | 0.00 | 0.00 | 39 | 1006.7 |
| 20260901185610 | 25 | 60 | 8.0 | 9.7 | 0.00 | 0.00 | 0.00 | 40 | 1006.8 |
| 20260901184611 | 25 | 24 | 8.0 | 11.3 | 0.00 | 0.00 | 0.00 | 39 | 1006.8 |
| 20260901183610 | 25 | 45 | 4.8 | 4.8 | 0.00 | 0.00 | 0.00 | 37 | 1006.9 |
| 20260901183112 | 25 | 325 | 8.0 | 8.0 | 0.00 | 0.00 | 0.00 | 36 | 1006.8 |
| 20260901182111 | 25 | 15 | 3.2 | 6.4 | 0.00 | 0.00 | 0.00 | 38 | 1007.0 |
| 20260901181112 | 24 | 337 | 4.8 | 6.4 | 0.00 | 0.00 | 0.00 | 41 | 1007.1 |
| 20260901180112 | 23 | 292 | 4.8 | 8.0 | 0.00 | 0.00 | 0.00 | 44 | 1007.2 |
| 20260901175112 | 22 | 174 | 8.0 | 14.5 | 0.00 | 0.00 | 0.00 | 44 | 1007.2 |
| 20260901174111 | 22 | 90 | 4.8 | 9.7 | 0.00 | 0.00 | 0.00 | 50 | 1007.4 |
| 20260901173111 | 22 | 0.0 | 0.0 | 0.00 | 0.00 | 0.00 | 49 | 1007.3 | |
| 20260901172113 | 22 | 0.0 | 0.0 | 0.00 | 0.00 | 0.00 | 48 | 1007.3 | |
| 20260901171111 | 22 | 0.0 | 0.0 | 0.00 | 0.00 | 0.00 | 52 | 1007.2 | |
| 20260901170133 | 21 | 0.0 | 0.0 | 0.00 | 0.00 | 0.00 | 55 | 1007.2 | |
| 20260901165111 | 21 | 0.0 | 0.0 | 0.00 | 0.00 | 0.00 | 56 | 1007.2 | |
| 20260901164153 | 21 | 0.0 | 0.0 | 0.00 | 0.00 | 0.00 | 57 | 1007.3 | |
| 20260901163133 | 20 | 0.0 | 0.0 | 0.00 | 0.00 | 0.00 | 59 | 1007.4 | |
| 20260901162112 | 20 | 0.0 | 0.0 | 0.00 | 0.00 | 0.00 | 60 | 1007.3 | |
| 20260901161133 | 18 | 23 | 0.0 | 1.6 | 0.00 | 0.00 | 0.00 | 64 | 1007.3 |
| 20260901160114 | 18 | 0.0 | 0.0 | 0.00 | 0.00 | 0.00 | 69 | 1007.2 | |
| 20260901155112 | 17 | 0.0 | 0.0 | 0.00 | 0.00 | 0.00 | 72 | 1007.2 | |
| 20260901154114 | 16 | 0.0 | 0.0 | 0.00 | 0.00 | 0.00 | 75 | 1007.3 | |
| 20260901153114 | 16 | 35 | 3.2 | 4.8 | 0.00 | 0.00 | 0.00 | 77 | 1007.2 |
| 20260901152132 | 15 | 32 | 0.0 | 3.2 | 0.00 | 0.00 | 0.00 | 81 | 1007.2 |
| 20260901151134 | 15 | 141 | 3.2 | 4.8 | 0.00 | 0.00 | 0.00 | 82 | 1007.3 |
| 20260901150113 | 14 | 29 | 3.2 | 4.8 | 0.00 | 0.00 | 0.00 | 83 | 1007.2 |
| 20260901145113 | 13 | 0.0 | 0.0 | 0.00 | 0.00 | 0.00 | 84 | 1007.1 | |
| 20260901144133 | 13 | 135 | 0.0 | 3.2 | 0.00 | 0.00 | 0.00 | 84 | 1007.1 |
| 20260901143113 | 13 | 9 | 1.6 | 3.2 | 0.00 | 0.00 | 0.00 | 85 | 1007.0 |
| 20260901142113 | 13 | 113 | 1.6 | 3.2 | 0.00 | 0.00 | 0.00 | 85 | 1007.0 |
| 20260901141115 | 12 | 23 | 0.0 | 1.6 | 0.00 | 0.00 | 0.00 | 85 | 1006.9 |
| 20260901140113 | 12 | 0.0 | 0.0 | 0.00 | 0.00 | 0.00 | 84 | 1006.9 | |
| 20260901135115 | 12 | 141 | 1.6 | 3.2 | 0.00 | 0.00 | 0.00 | 84 | 1006.8 |
| 20260901134115 | 12 | 0.0 | 0.0 | 0.00 | 0.00 | 0.00 | 83 | 1006.7 | |
| 20260901133114 | 12 | 0 | 0.0 | 3.2 | 0.00 | 0.00 | 0.00 | 83 | 1006.7 |
| 20260901132114 | 12 | 0.0 | 3.2 | 0.00 | 0.00 | 0.00 | 82 | 1006.7 | |
| 20260901131114 | 12 | 0.0 | 0.0 | 0.00 | 0.00 | 0.00 | 82 | 1006.7 | |
| 20260901130114 | 12 | 0.0 | 0.0 | 0.00 | 0.00 | 0.00 | 81 | 1006.6 | |
| 20260901125116 | 12 | 0.0 | 0.0 | 0.00 | 0.00 | 0.00 | 81 | 1006.6 | |
| 20260901124136 | 12 | 0.0 | 0.0 | 0.00 | 0.00 | 0.00 | 80 | 1006.6 | |
| 20260901123115 | 12 | 0.0 | 0.0 | 0.00 | 0.00 | 0.00 | 80 | 1006.6 | |
| 20260901122116 | 12 | 0.0 | 0.0 | 0.00 | 0.00 | 0.00 | 79 | 1006.6 | |
| 20260901121115 | 13 | 0.0 | 0.0 | 0.00 | 0.00 | 0.00 | 79 | 1006.6 | |
| 20260901120115 | 13 | 0.0 | 0.0 | 0.00 | 0.00 | 0.00 | 78 | 1006.6 | |
| 20260901115115 | 13 | 0.0 | 0.0 | 0.00 | 0.00 | 0.00 | 78 | 1006.7 | |
| 20260901114115 | 13 | 0.0 | 0.0 | 0.00 | 0.00 | 0.00 | 78 | 1006.8 | |
| 20260901113137 | 13 | 0.0 | 0.0 | 0.00 | 0.00 | 0.00 | 77 | 1006.7 | |
| 20260901112115 | 13 | 0.0 | 0.0 | 0.00 | 0.00 | 0.00 | 77 | 1006.6 | |
| 20260901111115 | 12 | 309 | 1.6 | 4.8 | 0.00 | 0.00 | 0.00 | 77 | 1006.7 |
| 20260901110115 | 12 | 338 | 0.0 | 3.2 | 0.00 | 0.00 | 0.00 | 77 | 1006.7 |
| 20260901105115 | 12 | 180 | 0.0 | 1.6 | 0.00 | 0.00 | 0.00 | 76 | 1006.7 |
| 20260901104118 | 12 | 152 | 0.0 | 4.8 | 0.00 | 0.00 | 0.00 | 75 | 1006.8 |
| 20260901103117 | 12 | 0.0 | 0.0 | 0.00 | 0.00 | 0.00 | 76 | 1007.0 | |
| 20260901102116 | 12 | 0.0 | 0.0 | 0.00 | 0.00 | 0.00 | 76 | 1007.0 | |
| 20260901101138 | 12 | 0.0 | 0.0 | 0.00 | 0.00 | 0.00 | 76 | 1007.0 | |
| 20260901100116 | 12 | 0.0 | 0.0 | 0.00 | 0.00 | 0.00 | 76 | 1007.0 | |
| 20260901095116 | 12 | 0.0 | 0.0 | 0.00 | 0.00 | 0.00 | 76 | 1007.1 | |
| 20260901094116 | 12 | 0.0 | 0.0 | 0.00 | 0.00 | 0.00 | 74 | 1007.1 | |
| 20260901093118 | 12 | 0.0 | 0.0 | 0.00 | 0.00 | 0.00 | 75 | 1007.1 | |
| 20260901092018 | 12 | 180 | 0.0 | 3.2 | 0.00 | 0.00 | 0.00 | 74 | 1007.1 |
| 20260901091117 | 12 | 0.0 | 0.0 | 0.00 | 0.00 | 0.00 | 73 | 1007.1 | |
| 20260901090159 | 13 | 0.0 | 0.0 | 0.00 | 0.00 | 0.00 | 73 | 1007.1 | |
| 20260901085219 | 13 | 0.0 | 0.0 | 0.00 | 0.00 | 0.00 | 72 | 1007.1 | |
| 20260901084118 | 13 | 0.0 | 0.0 | 0.00 | 0.00 | 0.00 | 70 | 1007.1 | |
| 20260901083039 | 13 | 0.0 | 0.0 | 0.00 | 0.00 | 0.00 | 70 | 1007.2 | |
| 20260901082018 | 14 | 0.0 | 0.0 | 0.00 | 0.00 | 0.00 | 71 | 1007.3 | |
| 20260901081017 | 14 | 0.0 | 0.0 | 0.00 | 0.00 | 0.00 | 72 | 1007.4 | |
| 20260901080119 | 14 | 0.0 | 0.0 | 0.00 | 0.00 | 0.00 | 72 | 1007.5 | |
| 20260901075020 | 14 | 0.0 | 0.0 | 0.00 | 0.00 | 0.00 | 72 | 1007.5 | |
| 20260901074018 | 15 | 0.0 | 0.0 | 0.00 | 0.00 | 0.00 | 72 | 1007.5 | |
| 20260901073018 | 15 | 0.0 | 0.0 | 0.00 | 0.00 | 0.00 | 73 | 1007.5 | |
| 20260901072018 | 14 | 180 | 0.0 | 3.2 | 0.00 | 0.00 | 0.00 | 73 | 1007.5 |
| 20260901071018 | 15 | 0.0 | 0.0 | 0.00 | 0.00 | 0.00 | 72 | 1007.5 | |
| 20260901070018 | 15 | 332 | 0.0 | 3.2 | 0.00 | 0.00 | 0.00 | 71 | 1007.5 |
| 20260901065040 | 15 | 293 | 0.0 | 1.6 | 0.00 | 0.00 | 0.00 | 71 | 1007.6 |
| 20260901064020 | 15 | 293 | 1.6 | 3.2 | 0.00 | 0.00 | 0.00 | 69 | 1007.5 |
| 20260901063040 | 15 | 289 | 1.6 | 4.8 | 0.00 | 0.00 | 0.00 | 69 | 1007.5 |
| 20260901062019 | 15 | 261 | 1.6 | 3.2 | 0.00 | 0.00 | 0.00 | 69 | 1007.5 |
| 20260901061101 | 15 | 23 | 0.0 | 1.6 | 0.00 | 0.00 | 0.00 | 69 | 1007.6 |
| 20260901060019 | 15 | 235 | 3.2 | 4.8 | 0.00 | 0.00 | 0.00 | 69 | 1007.7 |
| 20260901055019 | 15 | 0.0 | 0.0 | 0.00 | 0.00 | 0.00 | 70 | 1007.8 | |
| 20260901054021 | 15 | 0.0 | 0.0 | 0.00 | 0.00 | 0.00 | 71 | 1007.8 | |
| 20260901053019 | 15 | 0.0 | 0.0 | 0.00 | 0.00 | 0.00 | 71 | 1007.8 | |
| 20260901052019 | 15 | 0.0 | 0.0 | 0.00 | 0.00 | 0.00 | 70 | 1007.9 | |
| 20260901051019 | 15 | 0.0 | 0.0 | 0.00 | 0.00 | 0.00 | 70 | 1007.8 | |
| 20260901050040 | 15 | 0.0 | 0.0 | 0.00 | 0.00 | 0.00 | 68 | 1007.8 | |
| 20260901045102 | 15 | 0.0 | 0.0 | 0.00 | 0.00 | 0.00 | 67 | 1007.8 | |
| 20260901044042 | 15 | 0.0 | 0.0 | 0.00 | 0.00 | 0.00 | 64 | 1007.8 | |
| 20260901043020 | 16 | 0.0 | 0.0 | 0.00 | 0.00 | 0.00 | 63 | 1007.8 | |
| 20260901042022 | 16 | 0.0 | 0.0 | 0.00 | 0.00 | 0.00 | 61 | 1007.8 | |
| 20260901041020 | 17 | 0.0 | 0.0 | 0.00 | 0.00 | 0.00 | 57 | 1007.8 | |
| 20260901040020 | 17 | 0.0 | 0.0 | 0.00 | 0.00 | 0.00 | 57 | 1007.8 | |
| 20260901035041 | 17 | 0.0 | 0.0 | 0.00 | 0.00 | 0.00 | 55 | 1007.7 | |
| 20260901034022 | 18 | 0.0 | 0.0 | 0.00 | 0.00 | 0.00 | 54 | 1007.7 | |
| 20260901033042 | 19 | 0.0 | 0.0 | 0.00 | 0.00 | 0.00 | 52 | 1007.7 | |
| 20260901032021 | 20 | 0.0 | 0.0 | 0.00 | 0.00 | 0.00 | 49 | 1007.6 | |
| 20260901031021 | 21 | 0.0 | 0.0 | 0.00 | 0.00 | 0.00 | 45 | 1007.5 | |
| 20260901030021 | 22 | 195 | 3.2 | 4.8 | 0.00 | 0.00 | 0.00 | 40 | 1007.4 |
| 20260901025021 | 22 | 197 | 1.6 | 4.8 | 0.00 | 0.00 | 0.00 | 39 | 1007.4 |
| 20260901024043 | 23 | 204 | 1.6 | 4.8 | 0.00 | 0.00 | 0.00 | 41 | 1007.4 |
| 20260901023023 | 25 | 186 | 3.2 | 3.2 | 0.00 | 0.00 | 0.00 | 37 | 1007.4 |
| 20260901022022 | 26 | 218 | 1.6 | 4.8 | 0.00 | 0.00 | 0.00 | 37 | 1007.4 |
| 20260901021021 | 27 | 244 | 1.6 | 3.2 | 0.00 | 0.00 | 0.00 | 37 | 1007.4 |
| 20260901020022 | 27 | 231 | 1.6 | 6.4 | 0.00 | 0.00 | 0.00 | 35 | 1007.3 |
| 20260901015043 | 28 | 202 | 1.6 | 4.8 | 0.00 | 0.00 | 0.00 | 33 | 1007.3 |
| 20260901014022 | 28 | 270 | 4.8 | 6.4 | 0.00 | 0.00 | 0.00 | 34 | 1007.4 |
| 20260901013022 | 29 | 266 | 4.8 | 6.4 | 0.00 | 0.00 | 0.00 | 33 | 1007.5 |
| 20260901012024 | 31 | 247 | 3.2 | 4.8 | 0.00 | 0.00 | 0.00 | 30 | 1007.6 |
| 20260901011023 | 32 | 293 | 1.6 | 3.2 | 0.00 | 0.00 | 0.00 | 26 | 1007.6 |
| 20260901010044 | 32 | 290 | 3.2 | 4.8 | 0.00 | 0.00 | 0.00 | 26 | 1007.6 |
| 20260901005024 | 31 | 282 | 4.8 | 6.4 | 0.00 | 0.00 | 0.00 | 27 | 1007.7 |
| 20260901004023 | 30 | 357 | 3.2 | 8.0 | 0.00 | 0.00 | 0.00 | 25 | 1007.8 |
| 20260901003023 | 31 | 10 | 8.0 | 11.3 | 0.00 | 0.00 | 0.00 | 26 | 1008.0 |
| 20260901002024 | 30 | 87 | 3.2 | 6.4 | 0.00 | 0.00 | 0.00 | 25 | 1008.0 |
| 20260901001024 | 30 | 49 | 4.8 | 8.0 | 0.00 | 0.00 | 0.00 | 26 | 1008.2 |
| 20260901000025 | 31 | 25 | 3.2 | 4.8 | 0.00 | 0.00 | 0.00 | 27 | 1008.4 |
| 20260831235023 | 30 | 47 | 3.2 | 4.8 | 0.00 | 0.00 | 0.00 | 26 | 1008.5 |
| 20260831234025 | 30 | 353 | 4.8 | 9.7 | 0.00 | 0.00 | 0.00 | 25 | 1008.6 |
| 20260831232024 | 30 | 9 | 6.4 | 12.9 | 0.00 | 0.00 | 0.00 | 26 | 1008.9 |
| 20260831231025 | 30 | 16 | 3.2 | 6.4 | 0.00 | 0.00 | 0.00 | 27 | 1009.1 |
| 20260831230025 | 30 | 68 | 4.8 | 9.7 | 0.00 | 0.00 | 0.00 | 27 | 1009.2 |
| 20260831225024 | 30 | 52 | 3.2 | 4.8 | 0.00 | 0.00 | 0.00 | 28 | 1009.4 |
| 20260831224024 | 30 | 68 | 3.2 | 6.4 | 0.00 | 0.00 | 0.00 | 28 | 1009.5 |
| 20260831223026 | 29 | 96 | 4.8 | 8.0 | 0.00 | 0.00 | 0.00 | 28 | 1009.6 |
| 20260831222025 | 29 | 127 | 3.2 | 6.4 | 0.00 | 0.00 | 0.00 | 28 | 1009.8 |
| 20260831221025 | 29 | 130 | 4.8 | 9.7 | 0.00 | 0.00 | 0.00 | 28 | 1010.0 |
| 20260831220026 | 28 | 72 | 4.8 | 11.3 | 0.00 | 0.00 | 0.00 | 30 | 1010.2 |
| 20260831215025 | 28 | 7 | 6.4 | 11.3 | 0.00 | 0.00 | 0.00 | 30 | 1010.3 |
| 20260831214026 | 28 | 47 | 4.8 | 9.7 | 0.00 | 0.00 | 0.00 | 30 | 1010.4 |
| 20260831213027 | 28 | 54 | 6.4 | 11.3 | 0.00 | 0.00 | 0.00 | 30 | 1010.6 |
| 20260831212025 | 29 | 351 | 6.4 | 8.0 | 0.00 | 0.00 | 0.00 | 28 | 1010.7 |
| 20260831211107 | 30 | 340 | 4.8 | 11.3 | 0.00 | 0.00 | 0.00 | 29 | 1010.9 |
| 20260831210025 | 30 | 333 | 6.4 | 9.7 | 0.00 | 0.00 | 0.00 | 29 | 1010.9 |
| 20260831205025 | 29 | 335 | 6.4 | 9.7 | 0.00 | 0.00 | 0.00 | 29 | 1011.1 |
| 20260831204026 | 28 | 231 | 4.8 | 8.0 | 0.00 | 0.00 | 0.00 | 32 | 1011.3 |
| 20260831203026 | 28 | 284 | 6.4 | 9.7 | 0.00 | 0.00 | 0.00 | 32 | 1011.5 |
| 20260831202026 | 28 | 354 | 4.8 | 9.7 | 0.00 | 0.00 | 0.00 | 31 | 1011.7 |
| 20260831201026 | 28 | 216 | 3.2 | 6.4 | 0.00 | 0.00 | 0.00 | 32 | 1011.9 |
| 20260831200028 | 27 | 346 | 4.8 | 8.0 | 0.00 | 0.00 | 0.00 | 33 | 1012.1 |
| 20260831195027 | 27 | 283 | 3.2 | 6.4 | 0.00 | 0.00 | 0.00 | 33 | 1012.2 |
| 20260831194028 | 27 | 35 | 4.8 | 6.4 | 0.00 | 0.00 | 0.00 | 33 | 1012.4 |
| 20260831193027 | 27 | 89 | 3.2 | 6.4 | 0.00 | 0.00 | 0.00 | 35 | 1012.6 |
| 20260831192027 | 26 | 141 | 1.6 | 6.4 | 0.00 | 0.00 | 0.00 | 36 | 1012.9 |